Orbital Elements at Epoch 2459000.5 (2020-May-31.0) TDB
Reference: JPL 17 (heliocentric ecliptic J2000)
Element | Value | Uncertainty (1-sigma) | Units |
e | .03842170187563722 | 6.1582e-08 | |
a | 2.716047948963934 | 2.2356e-08 | au |
q | 2.611692764388906 | 1.7079e-07 | au |
i | 7.197956621094476 | 6.7738e-06 | deg |
node | 122.2852007465117 | 4.6362e-05 | deg |
peri | 242.1809234793844 | 9.3896e-05 | deg |
M | 28.90787914226786 | 7.946e-05 | deg |
tp | 2458869.214033562968 (2020-Jan-20.71403356) | 0.00036097 | TDB |
period | 1634.950377533087 4.48 | 2.0186e-05 5.527e-08 | d yr |
n | .2201901690393747 | 2.7186e-09 | deg/d |
Q | 2.820403133538962 | 2.3215e-08 | au |
|
| | Orbit Determination Parameters
Additional Information
|